When you browse on this site, cookies collect data to enhance your experience and personalize the content and advertising you see.
Visit our Privacy Policy to learn more. By continuing to use the site, you agree to this use of cookies and data.
  • In Latvia
  • List of Countries
  • For 7 days
  • Water Temperature
  • Weather Map
  • Weather Widgets
  • user-avatar
    Login

    Hourly Weather Uige

    Today, 21 November, Thursday

    Time Temperature Precipitation Wind Pressure Humidity
    00:00 +21°C° 0 mm 1 mps 690 mmHg 96%
    01:00 +19°C° 0 mm 0 mps 690 mmHg 96%
    02:00 +19°C° 0 mm 0 mps 690 mmHg 96%
    03:00 +19°C° 0 mm 0 mps 689 mmHg 96%
    04:00 +19°C° 0 mm 0 mps 689 mmHg 96%
    05:00 +19°C° 0.1 mm 0 mps 690 mmHg 96%
    06:00 +20°C° 0.1 mm 0 mps 690 mmHg 96%
    07:00 +20°C° 0 mm 0 mps 691 mmHg 95%
    08:00 +23°C° 0.2 mm 1 mps 691 mmHg 93%
    09:00 +24°C° 0.2 mm 1 mps 691 mmHg 91%
    10:00 +25°C° 0.2 mm 1 mps 691 mmHg 89%
    11:00 +26°C° 0.2 mm 1 mps 690 mmHg 84%
    12:00 +26°C° 0.2 mm 1 mps 690 mmHg 79%
    13:00 +27°C° 0.2 mm 2 mps 690 mmHg 75%
    14:00 +27°C° 0.6 mm 2 mps 689 mmHg 79%
    15:00 +26°C° 0.6 mm 2 mps 688 mmHg 84%
    16:00 +25°C° 0.6 mm 2 mps 688 mmHg 88%
    17:00 +24°C° 0.4 mm 2 mps 689 mmHg 89%
    18:00 +24°C° 0.4 mm 1 mps 690 mmHg 90%
    19:00 +23°C° 0.4 mm 1 mps 691 mmHg 91%
    20:00 +23°C° 0.1 mm 1 mps 691 mmHg 92%
    21:00 +22°C° 0.1 mm 1 mps 691 mmHg 94%
    22:00 +22°C° 0.1 mm 1 mps 691 mmHg 95%
    23:00 +21°C° 1.5 mm 1 mps 691 mmHg 97%

    Tomorrow, 22 November, Friday

    Time Temperature Precipitation Wind Pressure Humidity
    00:00 +21°C° 1.5 mm 1 mps 691 mmHg 98%
    01:00 +21°C° 1.5 mm 1 mps 690 mmHg 99%
    02:00 +21°C° 0.2 mm 1 mps 690 mmHg 99%
    03:00 +21°C° 0.2 mm 1 mps 690 mmHg 99%
    04:00 +21°C° 0.2 mm 1 mps 690 mmHg 99%
    05:00 +21°C° 0.1 mm 1 mps 690 mmHg 99%
    06:00 +21°C° 0.1 mm 1 mps 691 mmHg 98%
    07:00 +21°C° 0.1 mm 1 mps 691 mmHg 98%
    08:00 +22°C° 0.1 mm 1 mps 691 mmHg 96%
    09:00 +23°C° 0.1 mm 1 mps 692 mmHg 94%
    10:00 +23°C° 0.1 mm 1 mps 692 mmHg 91%
    11:00 +25°C° 0.1 mm 1 mps 691 mmHg 85%
    12:00 +26°C° 0.1 mm 2 mps 691 mmHg 78%
    13:00 +28°C° 0.1 mm 2 mps 691 mmHg 71%
    14:00 +27°C° 0.1 mm 2 mps 690 mmHg 73%
    15:00 +27°C° 0.1 mm 2 mps 689 mmHg 75%
    16:00 +26°C° 0.1 mm 2 mps 689 mmHg 78%
    17:00 +25°C° 0 mm 2 mps 689 mmHg 82%
    18:00 +23°C° 0 mm 1 mps 690 mmHg 86%
    19:00 +22°C° 0 mm 1 mps 690 mmHg 91%
    20:00 +22°C° 0 mm 1 mps 690 mmHg 91%
    21:00 +22°C° 0 mm 1 mps 691 mmHg 91%
    22:00 +22°C° 0 mm 1 mps 691 mmHg 92%
    23:00 +21°C° 0 mm 1 mps 691 mmHg 93%

    Day after tomorrow, 23 November, Saturday

    Time Temperature Precipitation Wind Pressure Humidity
    00:00 +21°C° 0 mm 1 mps 691 mmHg 94%
    01:00 +20°C° 0 mm 1 mps 690 mmHg 95%
    02:00 +19°C° 0 mm 0 mps 690 mmHg 94%
    03:00 +19°C° 0 mm 0 mps 690 mmHg 94%
    04:00 +19°C° 0 mm 0 mps 690 mmHg 93%
    05:00 +19°C° 0 mm 0 mps 690 mmHg 93%
    06:00 +19°C° 0 mm 0 mps 691 mmHg 93%
    07:00 +19°C° 0 mm 0 mps 691 mmHg 92%
    08:00 +20°C° 0 mm 0 mps 691 mmHg 90%
    09:00 +21°C° 0 mm 0 mps 691 mmHg 88%
    10:00 +21°C° 0 mm 0 mps 692 mmHg 86%
    11:00 +23°C° 0.1 mm 1 mps 691 mmHg 85%
    12:00 +24°C° 0.1 mm 1 mps 691 mmHg 84%
    13:00 +24°C° 0.1 mm 1 mps 690 mmHg 83%
    14:00 +24°C° 0.3 mm 1 mps 690 mmHg 87%
    15:00 +23°C° 0.3 mm 1 mps 690 mmHg 90%
    16:00 +21°C° 0.3 mm 0 mps 689 mmHg 94%
    17:00 +22°C° 0.3 mm 1 mps 690 mmHg 95%
    18:00 +22°C° 0.3 mm 1 mps 690 mmHg 96%
    19:00 +21°C° 0.3 mm 1 mps 690 mmHg 98%
    20:00 +21°C° 0.3 mm 1 mps 691 mmHg 98%
    21:00 +21°C° 0.3 mm 1 mps 691 mmHg 98%
    22:00 +21°C° 0.3 mm 1 mps 691 mmHg 98%
    23:00 +21°C° 0 mm 1 mps 690 mmHg 98%

    24 November, Sunday

    Time Temperature Precipitation Wind Pressure Humidity
    00:00 +19°C° 0 mm 0 mps 690 mmHg 97%
    01:00 +19°C° 0 mm 0 mps 689 mmHg 97%
    02:00 +19°C° 0 mm 0 mps 689 mmHg 96%
    03:00 +19°C° 0 mm 0 mps 689 mmHg 95%
    04:00 +19°C° 0 mm 0 mps 689 mmHg 95%
    05:00 +19°C° 0 mm 0 mps 690 mmHg 94%
    06:00 +19°C° 0 mm 0 mps 690 mmHg 93%
    07:00 +20°C° 0 mm 0 mps 691 mmHg 93%
    08:00 +21°C° 0 mm 0 mps 691 mmHg 89%
    09:00 +22°C° 0 mm 0 mps 691 mmHg 86%
    10:00 +23°C° 0 mm 0 mps 691 mmHg 83%
    11:00 +23°C° 0.1 mm 0 mps 691 mmHg 83%
    12:00 +25°C° 0.1 mm 1 mps 690 mmHg 83%
    13:00 +25°C° 0.1 mm 1 mps 689 mmHg 83%
    14:00 +25°C° 0.5 mm 1 mps 689 mmHg 82%
    15:00 +24°C° 0.5 mm 0 mps 689 mmHg 81%
    16:00 +24°C° 0.5 mm 0 mps 689 mmHg 80%
    17:00 +23°C° 0.5 mm 0 mps 689 mmHg 85%
    18:00 +22°C° 0.5 mm 0 mps 689 mmHg 89%
    19:00 +20°C° 0.5 mm 0 mps 690 mmHg 93%
    20:00 +20°C° 0.3 mm 0 mps 690 mmHg 94%
    21:00 +20°C° 0.3 mm 0 mps 690 mmHg 94%
    22:00 +20°C° 0.3 mm 0 mps 691 mmHg 95%
    23:00 +20°C° 0.1 mm 0 mps 690 mmHg 95%

    25 November, Monday

    Time Temperature Precipitation Wind Pressure Humidity
    00:00 +20°C° 0.1 mm 0 mps 690 mmHg 95%
    01:00 +20°C° 0.1 mm 0 mps 690 mmHg 96%
    02:00 +20°C° 0.1 mm 0 mps 690 mmHg 96%
    03:00 +20°C° 0.1 mm 0 mps 689 mmHg 97%
    04:00 +19°C° 0.1 mm 0 mps 689 mmHg 97%
    05:00 +20°C° 0 mm 0 mps 690 mmHg 97%
    06:00 +20°C° 0 mm 0 mps 690 mmHg 96%
    07:00 +20°C° 0 mm 0 mps 691 mmHg 96%
    08:00 +22°C° 0.5 mm 0 mps 691 mmHg 91%
    09:00 +23°C° 0.5 mm 0 mps 691 mmHg 87%
    10:00 +25°C° 0.5 mm 0 mps 691 mmHg 82%
    11:00 +27°C° 0.7 mm 1 mps 691 mmHg 79%
    12:00 +28°C° 0.7 mm 1 mps 690 mmHg 76%
    13:00 +28°C° 0.7 mm 1 mps 689 mmHg 73%
    14:00 +28°C° 1 mm 1 mps 689 mmHg 79%
    15:00 +27°C° 1 mm 1 mps 688 mmHg 85%
    16:00 +26°C° 1 mm 1 mps 688 mmHg 91%
    17:00 +25°C° 0.4 mm 1 mps 688 mmHg 93%
    18:00 +24°C° 0.4 mm 1 mps 689 mmHg 95%
    19:00 +20°C° 0.4 mm 0 mps 689 mmHg 97%
    20:00 +20°C° 0.2 mm 0 mps 690 mmHg 97%
    21:00 +20°C° 0.2 mm 0 mps 690 mmHg 97%
    22:00 +20°C° 0.2 mm 0 mps 691 mmHg 97%
    23:00 +19°C° 0 mm 0 mps 690 mmHg 97%

    26 November, Tuesday

    Time Temperature Precipitation Wind Pressure Humidity
    00:00 +19°C° 0 mm 0 mps 690 mmHg 98%
    01:00 +19°C° 0 mm 0 mps 690 mmHg 98%
    02:00 +19°C° 0 mm 0 mps 689 mmHg 98%
    03:00 +19°C° 0 mm 0 mps 689 mmHg 98%
    04:00 +19°C° 0 mm 0 mps 689 mmHg 98%
    05:00 +20°C° 0.2 mm 0 mps 690 mmHg 98%
    06:00 +20°C° 0.2 mm 0 mps 690 mmHg 97%
    07:00 +21°C° 0.2 mm 0 mps 691 mmHg 96%
    08:00 +22°C° 0.5 mm 0 mps 691 mmHg 89%
    09:00 +26°C° 0.5 mm 1 mps 691 mmHg 83%
    10:00 +28°C° 0.5 mm 1 mps 692 mmHg 76%
    11:00 +28°C° 1.1 mm 1 mps 691 mmHg 76%
    12:00 +28°C° 1.1 mm 1 mps 690 mmHg 77%
    13:00 +28°C° 1.1 mm 1 mps 689 mmHg 77%
    14:00 +28°C° 0.3 mm 1 mps 689 mmHg 78%
    15:00 +28°C° 0.3 mm 1 mps 689 mmHg 79%
    16:00 +27°C° 0.3 mm 1 mps 688 mmHg 79%
    17:00 +26°C° 1.2 mm 1 mps 689 mmHg 85%
    18:00 +25°C° 1.2 mm 1 mps 689 mmHg 90%
    19:00 +23°C° 1.2 mm 1 mps 689 mmHg 95%
    20:00 +23°C° 1.4 mm 1 mps 690 mmHg 96%
    21:00 +23°C° 1.4 mm 1 mps 690 mmHg 96%
    22:00 +20°C° 1.4 mm 0 mps 691 mmHg 97%
    23:00 +20°C° 0.6 mm 0 mps 690 mmHg 97%
    Show more